Vorticity
16 15 14 12 10 9 8 7 7 7 7 6 7 12 14 13 10 7 10 13 13 12 8 4 3 4 5 4 3 3 3 8 9 3 0 3 3 2 3 3 3 4 7 9 7 5 3 -0 4 16 19 13 10 12 11 7 5 6 7 7 7 6 7 8 7 8 9 9 8 9 10 9 9 8 6 4 4 5 9 12 14 12 10 8 6
14 14 14 12 12 10 8 8 8 7 8 7 10 13 12 10 9 10 13 14 13 10 5 3 4 5 4 4 3 3 5 7 5 0 2 5 4 4 4 3 4 6 7 8 8 8 9 3 0 11 20 16 11 11 12 11 9 7 7 8 8 9 10 10 8 7 9 12 12 10 9 7 5 4 3 2 4 7 11 14 12 11 9 6 5
11 12 14 15 14 12 11 10 10 10 10 13 15 13 11 11 11 13 15 14 11 6 3 4 5 4 4 3 2 4 5 5 2 1 3 5 5 6 5 3 5 7 8 7 6 8 13 12 6 10 18 16 11 10 11 12 11 10 9 8 9 11 12 10 8 6 7 11 15 14 12 10 7 5 4 4 6 9 12 14 12 10 7 5 5
11 12 14 15 13 13 14 13 12 14 14 16 17 13 11 12 12 14 15 13 8 4 3 6 5 4 4 2 3 5 4 2 1 2 4 5 6 5 4 4 4 7 8 8 8 9 14 16 12 13 17 14 9 9 10 10 10 9 9 8 8 10 10 9 7 7 6 7 11 14 14 13 11 9 8 8 10 11 13 14 13 10 6 4 4
10 12 12 13 13 12 14 14 14 16 18 18 16 14 12 10 10 14 14 11 6 3 4 7 5 3 2 2 5 4 2 1 1 2 2 3 4 2 2 3 5 8 8 8 10 10 13 18 17 16 16 13 8 7 8 9 7 7 7 6 7 8 9 9 8 8 7 6 7 10 11 12 12 10 10 12 11 9 9 10 11 10 8 4 1
9 11 11 11 12 13 12 13 14 15 17 18 15 11 9 8 8 13 14 8 3 4 7 7 5 3 2 4 5 3 1 1 0 1 2 2 1 2 2 4 6 8 6 6 9 10 11 14 17 17 15 11 9 8 7 6 6 6 6 6 7 7 8 9 9 8 7 7 7 8 10 12 11 8 10 13 10 5 2 2 4 8 9 8 5
7 8 10 11 13 15 14 11 12 14 15 16 14 10 7 7 10 14 12 5 2 5 8 7 3 2 4 5 4 1 1 1 0 1 2 1 1 2 3 3 4 7 6 4 7 10 11 11 12 13 12 10 9 7 7 8 8 7 7 8 8 8 8 8 9 8 7 7 8 8 10 13 11 8 10 12 10 4 -0 -0 4 10 14 16 13
7 7 7 9 12 16 15 10 8 9 11 12 13 12 9 8 12 14 8 2 4 9 9 5 2 3 6 5 2 1 1 1 1 2 2 1 1 2 4 4 3 5 6 3 3 6 9 12 12 10 10 9 8 7 8 11 11 9 9 10 9 7 7 8 9 8 8 9 9 9 12 13 10 9 11 11 9 5 3 5 9 13 16 16 12
4 5 6 7 10 12 11 10 9 8 9 11 12 14 15 13 14 13 6 2 7 11 7 2 2 4 5 3 0 2 2 1 1 2 1 -0 1 2 4 3 3 6 7 3 1 2 5 9 11 10 10 8 6 7 9 11 12 11 9 10 10 8 7 8 9 9 9 10 9 10 13 11 8 10 12 10 8 7 6 9 12 14 12 9 9
3 3 6 8 8 7 6 8 8 7 9 10 11 12 13 14 14 11 5 4 10 12 5 1 4 6 4 1 1 1 1 1 2 2 1 -1 -0 3 5 5 5 6 8 7 4 2 3 6 8 8 9 9 8 8 8 10 11 9 8 10 10 8 8 8 10 11 11 11 10 10 11 10 8 10 11 8 7 7 8 10 11 12 9 3 2
2 1 4 6 5 4 5 6 6 6 7 8 10 13 12 12 12 8 5 8 13 11 4 1 5 5 1 -0 2 1 0 1 2 1 -0 -1 -0 4 7 6 4 4 6 8 8 6 4 5 6 6 7 8 9 9 8 7 8 8 8 10 9 7 7 9 13 14 12 11 10 9 9 10 9 9 9 7 8 8 10 13 13 10 9 3 -5
3 1 1 4 3 3 6 6 4 4 4 4 7 10 12 13 12 8 7 11 14 9 2 4 7 2 -0 1 2 1 1 1 1 1 -1 -1 2 6 7 3 0 0 1 2 5 7 6 6 7 6 7 8 10 9 7 5 7 8 7 8 9 7 4 8 13 12 10 11 11 10 9 9 9 8 8 9 10 10 10 13 14 11 9 6 -3
7 6 4 4 4 5 7 8 7 5 5 7 6 3 6 12 16 17 14 11 12 8 2 5 5 -2 -2 3 2 1 1 -1 -1 1 1 1 2 2 1 1 1 2 1 3 5 3 2 5 7 7 7 8 9 8 5 6 9 7 6 9 10 5 3 7 11 12 12 12 12 11 8 8 9 8 8 10 10 9 10 11 13 13 11 10 7
11 12 12 9 7 5 6 7 7 5 5 8 7 3 3 5 10 19 19 12 11 8 4 6 5 -1 1 4 1 -1 -1 -1 -0 1 1 2 -0 -4 -4 -2 2 5 7 7 5 1 0 3 6 8 9 7 8 7 5 7 7 4 7 12 8 3 5 8 10 14 15 15 14 12 9 8 9 7 8 12 11 10 12 15 16 17 17 15 11
5 9 13 13 9 6 5 6 6 5 6 9 8 6 6 6 7 13 18 18 13 6 5 7 3 -1 1 2 -0 -2 -1 0 1 2 2 1 -1 -2 -1 1 5 8 9 13 17 14 7 3 5 10 10 6 4 5 6 7 5 5 11 12 5 4 7 9 13 16 14 12 11 9 7 6 7 8 9 10 10 9 12 18 19 15 13 7 0
0 2 5 10 12 9 7 7 4 2 3 8 8 5 5 9 12 11 13 20 16 7 8 9 3 1 2 -1 -2 0 2 2 2 0 0 2 2 -1 -1 4 8 6 8 22 39 34 12 2 5 9 9 6 4 5 6 6 7 11 13 9 4 6 8 11 14 11 6 9 13 13 13 11 8 9 9 7 9 10 13 20 18 8 4 -0 -6
-0 -1 -2 1 4 5 7 8 7 4 3 4 5 3 3 9 15 13 10 15 17 13 13 9 2 -1 -1 -3 -0 3 2 1 1 1 0 1 2 0 2 7 5 1 4 14 28 25 6 1 7 6 5 7 6 5 6 7 13 17 12 6 4 5 9 12 12 9 10 20 27 19 8 8 11 10 7 8 9 9 15 21 15 4 -0 -2 -6
1 -0 1 3 2 3 9 12 9 6 5 4 3 3 2 3 11 15 12 11 14 18 16 9 1 -2 -3 -3 0 2 2 0 0 1 1 1 2 1 4 7 1 2 8 9 14 15 5 4 10 7 4 7 6 7 9 9 14 14 6 2 4 7 10 12 12 14 15 19 25 14 -8 -13 -2 5 6 8 6 8 22 27 14 1 -3 -3 -0
6 5 6 11 11 9 14 19 16 9 7 8 8 7 4 -0 3 13 15 10 11 17 16 7 -0 -1 1 3 2 -0 1 3 2 1 0 1 2 2 6 9 2 2 8 4 3 5 1 4 11 8 6 9 7 7 9 7 8 9 4 5 8 8 12 15 16 17 13 11 20 23 3 -20 -18 -3 5 5 7 18 30 24 4 -6 -4 2 10
5 7 1 -0 1 5 11 16 14 9 8 10 8 7 6 1 -1 4 11 12 12 15 14 7 0 1 5 5 2 0 2 2 2 1 1 1 1 1 7 9 1 3 11 8 1 0 2 9 14 9 8 11 9 8 7 4 5 9 9 8 8 10 18 23 19 15 11 9 15 22 11 -13 -16 -2 2 5 21 33 23 4 -10 -9 2 11 17
2 9 6 -2 0 10 15 13 11 9 11 14 11 7 7 4 1 3 9 12 13 13 13 8 4 5 7 3 -1 -1 3 4 1 -1 1 3 2 0 4 5 -1 -1 8 8 2 1 7 14 16 12 10 11 11 9 6 5 7 10 9 9 12 20 24 19 12 11 13 12 12 15 9 -6 -7 1 3 14 33 26 -3 -12 -4 5 15 21 18
5 12 14 5 2 4 1 1 6 7 4 6 6 5 7 6 4 5 7 9 10 11 14 13 8 4 3 1 -1 -2 1 2 -0 0 2 4 3 0 -1 2 2 3 5 5 2 3 9 17 19 15 11 9 9 7 6 8 9 8 11 16 19 23 19 11 11 15 13 11 16 16 6 -1 2 7 12 24 26 1 -17 -3 13 18 21 21 16
5 6 8 7 6 6 2 6 15 14 7 5 4 3 5 6 5 4 5 6 7 9 12 10 7 3 0 -2 -3 -1 2 1 -1 1 3 2 2 1 0 2 4 5 5 5 3 4 11 17 16 11 8 8 7 6 8 11 10 11 18 24 22 19 14 11 14 14 6 8 15 10 1 5 11 11 14 17 5 -11 -5 14 20 19 20 19 17
3 3 7 8 9 12 13 15 17 13 7 7 8 4 1 2 4 4 4 4 5 9 12 8 2 1 0 -0 -2 -2 -0 3 2 -1 -2 -2 2 2 1 4 6 5 5 4 2 5 11 14 11 8 8 8 6 7 11 12 11 14 20 23 20 15 16 20 15 4 2 8 6 -3 1 14 16 11 10 3 -11 -10 9 21 20 18 19 18 17
-1 1 3 4 5 10 11 7 5 4 3 7 16 14 5 1 5 6 6 6 3 3 4 2 0 0 -2 -3 -0 0 1 3 2 -0 -3 -2 3 3 -1 2 6 4 5 4 3 7 11 10 8 9 10 9 7 9 13 11 9 13 16 18 18 20 31 36 17 -3 -0 5 -4 -6 7 17 13 7 3 -4 -5 7 22 24 21 18 17 16 14
13 12 10 9 8 8 3 -4 -6 -3 1 4 13 18 11 5 5 6 7 6 4 4 3 -1 -2 -0 -1 -1 -0 1 4 4 1 2 2 -1 1 2 -0 4 7 3 3 5 3 6 11 9 8 11 11 8 8 10 11 9 7 8 9 12 16 22 30 27 6 -6 -3 -5 -8 2 14 14 9 3 -1 5 17 25 25 22 19 17 14 13 12
24 25 23 20 15 11 9 8 7 8 9 5 6 14 16 10 8 8 8 6 4 4 1 -2 -1 -2 -4 1 3 -1 1 4 0 -1 1 -0 1 2 0 6 10 3 1 5 4 5 12 12 10 12 10 7 9 11 8 7 8 8 10 16 20 20 19 11 -1 -6 -10 -15 -5 14 17 9 8 9 12 21 27 24 21 21 18 14 12 12 12
11 14 16 17 19 18 17 19 18 17 19 17 14 16 17 13 8 7 6 5 9 16 11 -2 -3 3 0 -1 3 1 -0 1 -2 -3 2 4 4 1 -1 5 9 1 -1 4 3 6 14 13 10 12 11 9 11 9 6 8 9 8 13 20 17 12 13 14 7 -2 -6 -1 15 23 16 10 14 17 21 24 22 19 21 19 14 12 12 11 11
7 8 9 9 9 9 8 9 10 9 12 17 21 25 26 21 14 10 6 -7 -11 17 41 20 -5 -1 4 -1 -1 0 -1 0 1 2 6 7 3 -1 0 8 11 4 1 4 4 8 16 14 10 11 11 10 11 8 6 10 10 7 11 14 11 10 17 20 15 9 10 17 22 18 14 16 17 17 19 21 20 20 19 14 12 12 11 9 10
7 7 9 7 6 7 8 6 4 2 1 1 3 9 18 24 19 11 14 5 -20 -10 35 46 20 6 5 0 -2 0 0 2 2 1 1 2 -0 -1 4 11 12 6 2 4 4 10 16 14 10 12 11 8 9 8 8 9 8 7 10 11 10 15 19 17 16 16 16 16 17 15 15 16 15 16 21 22 21 18 14 11 11 10 8 8 10
7 8 5 4 7 7 8 11 16 19 17 12 6 -1 -1 15 26 15 11 17 -4 -26 2 41 37 11 -1 -0 2 3 2 2 2 0 0 -0 -1 1 5 7 7 4 3 4 5 10 16 14 11 11 10 7 9 9 7 8 7 7 10 11 11 14 15 14 15 17 17 17 18 17 15 16 18 22 24 21 17 14 11 9 8 6 7 8 8
12 10 3 8 15 11 14 21 18 16 16 9 12 19 6 -0 15 18 13 21 11 -15 -0 42 44 9 -13 -10 -2 2 2 0 -2 -0 3 3 1 4 6 6 5 4 3 4 5 9 16 16 12 10 9 9 10 9 6 7 8 9 10 11 10 11 13 14 17 19 20 19 17 15 18 22 23 22 19 16 14 10 7 6 6 7 8 8 7
17 13 10 17 16 13 23 21 11 41 71 41 6 18 27 14 7 2 -3 12 21 7 8 28 33 14 -7 -16 -6 7 7 1 1 4 5 3 1 2 5 7 6 4 4 5 6 11 16 16 11 9 9 9 9 8 6 8 10 10 9 8 7 10 15 18 21 22 20 17 17 20 24 24 20 18 16 13 10 7 5 6 8 9 9 8 7
15 13 13 15 9 14 32 23 12 61 107 70 21 25 33 23 23 17 -1 -0 21 34 26 0 -12 0 3 -9 -3 13 9 1 3 4 -0 1 5 9 11 8 4 4 6 6 8 13 18 16 10 9 10 10 9 8 9 11 10 8 6 7 9 15 20 22 23 21 18 17 21 23 22 19 16 15 12 9 6 5 6 8 9 9 9 9 8
13 7 5 11 10 12 23 20 12 24 28 25 60 99 71 24 19 30 22 11 19 48 58 17 -17 4 22 3 -6 7 7 -1 1 2 2 10 17 18 14 6 3 6 8 7 10 16 18 14 10 9 11 10 8 9 11 11 8 5 5 9 13 18 21 23 22 19 17 19 21 19 17 16 14 12 9 6 5 6 7 8 8 9 9 10 8
14 9 9 22 30 29 31 34 42 45 24 16 55 88 70 45 40 38 41 46 39 41 51 25 -7 5 17 -3 -9 8 9 -2 -0 4 3 5 9 9 6 3 4 8 8 8 14 18 15 11 10 11 11 8 8 10 11 8 5 4 8 12 16 20 23 24 20 16 15 16 17 16 16 15 12 8 6 5 5 7 7 8 9 10 10 10 10
18 20 22 26 25 25 30 31 33 43 48 46 44 30 15 25 37 30 34 49 39 21 23 20 5 2 1 -3 7 18 9 -1 5 8 2 1 5 7 5 3 6 9 9 13 17 16 12 10 11 10 9 8 10 11 8 5 5 8 11 14 18 22 25 21 15 13 14 14 16 17 16 13 9 6 5 4 5 7 8 9 10 10 10 11 10
19 20 24 23 11 10 25 32 25 27 42 58 65 51 23 11 16 20 22 24 15 7 13 20 13 2 0 9 17 12 -0 1 7 6 2 4 7 6 4 6 10 11 12 16 17 12 10 11 11 9 8 9 11 10 7 6 8 9 11 15 20 24 22 16 12 12 13 14 17 18 15 10 6 4 4 5 6 7 9 10 10 10 11 11 10
17 15 20 21 15 22 43 45 27 22 33 33 26 25 24 20 19 17 12 7 6 9 13 14 10 4 7 14 11 1 -1 6 7 4 5 7 4 4 8 11 13 14 16 16 14 11 11 11 9 8 9 10 10 8 7 7 8 9 12 17 21 22 18 13 12 12 13 16 19 18 13 8 5 3 4 5 7 9 10 11 10 10 11 11 11
14 15 20 20 19 31 51 50 27 17 26 25 11 8 19 21 11 0 -3 1 8 11 11 12 12 11 10 7 2 4 13 16 8 4 7 5 3 8 13 13 13 16 16 13 11 10 11 10 8 9 10 10 9 8 8 8 9 11 14 18 20 19 16 13 13 14 16 19 19 15 10 6 4 3 5 7 9 11 11 11 11 11 10 10 11
9 7 10 17 21 23 25 22 15 11 13 13 9 6 5 2 -4 -5 2 13 18 17 12 9 9 10 7 4 7 18 24 17 8 4 5 3 5 11 15 15 16 15 12 10 11 11 9 8 9 10 10 10 9 9 7 7 10 13 16 18 19 18 16 13 14 16 18 19 16 11 7 5 3 5 8 10 11 12 12 12 12 12 11 11 11
7 6 5 7 15 19 14 8 8 12 14 14 13 9 6 8 11 11 11 12 13 10 6 4 6 8 8 8 14 19 16 7 3 4 4 5 10 16 16 15 13 11 10 11 11 9 8 9 11 10 10 10 10 8 6 8 12 15 17 18 18 17 15 14 15 17 17 15 11 8 5 4 4 7 10 12 12 12 12 11 12 12 12 11 11
7 6 5 5 6 10 12 10 9 9 8 7 7 6 5 9 12 11 9 8 6 6 8 10 11 14 16 15 12 10 7 3 5 8 9 11 14 17 15 12 10 10 11 11 9 8 9 10 10 10 10 10 9 6 6 10 14 15 16 18 18 17 15 15 15 15 15 12 9 6 4 4 7 10 12 12 11 10 9 9 9 9 10 10 11
9 5 4 8 9 8 9 11 13 13 11 7 6 6 4 4 5 6 7 6 5 8 12 12 10 14 21 18 9 4 4 6 9 13 15 16 16 14 11 9 9 9 9 9 9 9 10 10 10 11 12 10 7 6 8 11 13 14 16 18 18 16 15 13 13 13 12 10 7 5 4 6 10 13 12 10 8 7 7 6 5 6 7 8 10
12 11 10 10 8 8 11 11 10 10 9 7 6 7 9 11 14 16 16 15 15 14 12 10 14 20 20 11 4 3 5 8 14 18 18 15 13 11 10 9 9 9 10 10 9 8 10 11 12 12 12 9 6 7 10 12 13 16 19 18 16 14 12 11 10 10 9 8 6 5 6 10 12 12 9 7 5 5 5 5 5 5 5 6 8
7 7 7 7 4 3 3 3 3 3 3 2 2 3 5 8 11 13 15 19 22 21 15 13 18 22 16 7 5 8 10 13 18 19 15 11 10 9 9 8 9 10 10 9 8 9 11 12 12 12 11 8 6 10 13 13 14 17 18 15 13 11 8 7 9 9 8 7 6 6 9 12 11 8 5 4 4 4 4 5 6 6 6 6 7
7 5 3 2 1 2 3 5 4 2 1 2 4 4 3 2 4 8 11 12 15 18 18 15 13 10 7 6 10 14 17 18 15 11 8 7 8 8 9 10 11 11 9 8 9 11 11 11 12 13 11 7 8 13 13 11 13 15 14 11 9 8 6 8 9 9 8 7 7 8 11 11 8 5 4 3 3 4 5 6 7 7 7 7 7
8 9 11 10 8 8 10 11 12 13 15 16 16 14 11 9 9 11 13 12 11 13 14 13 12 11 11 12 14 16 16 16 14 12 11 11 10 10 11 11 10 8 8 8 10 11 11 12 14 13 10 8 10 12 11 10 13 13 10 8 8 7 6 8 8 7 7 8 9 10 10 8 5 4 3 3 4 5 5 6 7 7 7 8 7
11 10 11 13 16 19 20 19 20 21 19 17 19 24 27 27 25 20 15 13 13 13 11 11 16 23 29 33 34 34 31 27 22 19 16 13 11 11 11 10 8 8 8 10 11 11 12 13 13 12 11 9 9 10 10 11 11 9 8 7 7 6 7 8 7 7 9 10 10 10 9 6 5 4 3 2 4 5 5 7 7 7 8 8 7
15 16 14 11 12 15 16 16 17 15 12 15 21 21 19 23 32 35 34 34 35 35 34 34 33 32 32 33 33 31 28 23 18 14 11 10 10 10 9 8 8 8 9 10 11 11 12 12 12 12 11 10 8 9 9 9 8 8 7 7 6 7 7 7 7 7 10 10 9 8 6 4 4 3 2 3 4 4 5 7 7 7 8 8 7
9 12 14 14 13 12 11 12 14 13 14 18 16 2 -6 2 13 15 16 23 27 23 21 22 22 18 17 16 14 13 12 10 8 9 9 8 8 9 9 9 10 10 10 10 11 10 11 11 11 11 12 10 9 8 8 8 7 7 7 7 8 9 8 8 8 8 10 10 9 7 5 4 4 3 2 3 4 4 6 7 7 7 8 8 7
Height
5893 5894 5895 5895 5896 5897 5898 5898 5899 5899 5900 5900 5902 5902 5902 5903 5903 5904 5904 5904 5905 5906 5907 5907 5907 5907 5908 5909 5909 5909 5909 5909 5908 5907 5906 5906 5905 5903 5902 5901 5900 5899 5897 5896 5894 5892 5890 5888 5887 5886 5884 5882 5881 5880 5879 5878 5877 5877 5876 5875 5874 5873 5873 5872 5870 5870 5869 5868 5867 5866 5865 5864 5864 5863 5862 5862 5861 5860 5859 5858 5857 5856 5855 5854 5854
5890 5891 5891 5892 5893 5894 5895 5895 5896 5897 5897 5898 5899 5900 5900 5901 5901 5902 5902 5903 5903 5904 5905 5905 5905 5905 5906 5907 5908 5908 5908 5908 5906 5906 5905 5904 5903 5901 5900 5899 5898 5897 5895 5894 5892 5890 5888 5887 5885 5884 5883 5881 5880 5879 5878 5877 5876 5875 5875 5874 5873 5872 5870 5869 5868 5867 5866 5866 5864 5863 5863 5862 5861 5860 5859 5858 5857 5857 5855 5854 5853 5852 5851 5851 5850
5887 5888 5888 5889 5890 5891 5891 5892 5893 5894 5895 5896 5897 5897 5898 5898 5899 5900 5900 5900 5901 5902 5902 5903 5903 5903 5904 5905 5906 5907 5907 5906 5905 5904 5903 5902 5901 5899 5898 5897 5896 5895 5893 5892 5890 5888 5887 5885 5884 5882 5881 5880 5879 5877 5876 5875 5874 5874 5873 5872 5871 5870 5868 5867 5865 5864 5863 5862 5861 5860 5860 5859 5857 5856 5856 5855 5854 5853 5851 5850 5849 5849 5848 5847 5846
5884 5885 5886 5887 5887 5888 5889 5890 5891 5892 5893 5894 5895 5895 5895 5896 5897 5898 5898 5899 5899 5900 5900 5900 5901 5901 5902 5903 5904 5905 5904 5904 5903 5903 5902 5900 5899 5897 5896 5895 5894 5893 5891 5890 5888 5886 5885 5883 5882 5880 5879 5878 5877 5876 5874 5873 5872 5871 5870 5869 5868 5867 5866 5864 5863 5861 5860 5858 5858 5857 5856 5855 5854 5853 5852 5851 5850 5849 5848 5847 5846 5845 5844 5843 5843
5882 5883 5884 5884 5885 5885 5886 5887 5888 5890 5891 5892 5892 5892 5893 5894 5895 5896 5896 5897 5897 5897 5898 5898 5899 5899 5900 5901 5902 5902 5902 5902 5901 5901 5900 5898 5897 5895 5894 5894 5893 5891 5889 5888 5887 5885 5883 5882 5880 5878 5877 5876 5875 5874 5873 5871 5870 5869 5868 5867 5866 5864 5863 5861 5860 5858 5856 5855 5854 5853 5852 5851 5850 5849 5848 5847 5846 5845 5844 5843 5842 5841 5840 5840 5839
5880 5881 5881 5882 5883 5883 5884 5885 5886 5888 5889 5889 5890 5890 5891 5892 5893 5894 5895 5895 5895 5895 5896 5896 5897 5897 5898 5899 5900 5900 5900 5900 5899 5898 5897 5896 5895 5893 5892 5892 5890 5889 5888 5887 5885 5884 5882 5880 5878 5877 5875 5874 5874 5873 5871 5869 5868 5866 5865 5864 5863 5861 5860 5858 5857 5855 5853 5851 5850 5849 5848 5847 5846 5844 5843 5843 5842 5841 5840 5839 5838 5837 5836 5836 5834
5878 5879 5880 5880 5881 5881 5882 5883 5884 5885 5886 5887 5888 5888 5889 5890 5891 5892 5892 5893 5893 5894 5894 5894 5895 5895 5896 5897 5897 5897 5897 5897 5896 5895 5894 5893 5892 5891 5890 5889 5888 5887 5886 5885 5884 5882 5881 5879 5877 5875 5874 5873 5872 5870 5869 5867 5865 5864 5862 5861 5860 5858 5856 5855 5854 5852 5850 5849 5847 5846 5844 5843 5842 5840 5839 5838 5837 5836 5835 5835 5833 5831 5831 5830 5829
5877 5877 5878 5879 5879 5880 5881 5882 5883 5883 5884 5885 5886 5887 5888 5889 5889 5889 5890 5891 5892 5892 5892 5892 5892 5893 5893 5894 5894 5894 5894 5894 5894 5893 5891 5890 5889 5889 5888 5887 5886 5885 5884 5882 5881 5880 5879 5877 5875 5874 5872 5871 5869 5868 5866 5865 5863 5861 5860 5858 5857 5855 5853 5852 5850 5849 5848 5846 5844 5842 5841 5839 5837 5835 5834 5834 5833 5832 5831 5830 5828 5826 5825 5824 5823
5875 5876 5876 5877 5878 5879 5879 5880 5881 5882 5882 5883 5884 5885 5886 5887 5887 5887 5888 5889 5890 5890 5890 5890 5890 5891 5891 5892 5892 5892 5892 5891 5891 5890 5889 5887 5887 5887 5886 5885 5883 5882 5881 5880 5879 5878 5876 5875 5873 5872 5870 5868 5866 5865 5863 5861 5860 5858 5856 5855 5853 5851 5850 5848 5847 5846 5844 5843 5840 5839 5837 5835 5832 5831 5830 5829 5828 5827 5825 5824 5823 5821 5820 5820 5817
5873 5874 5875 5877 5877 5878 5878 5879 5879 5880 5881 5882 5883 5884 5884 5885 5885 5886 5886 5887 5887 5887 5888 5888 5889 5889 5889 5889 5889 5889 5889 5889 5888 5887 5886 5885 5884 5885 5884 5883 5881 5880 5879 5877 5876 5874 5873 5872 5871 5869 5867 5865 5863 5861 5859 5858 5856 5855 5853 5851 5850 5848 5846 5845 5844 5842 5841 5839 5837 5835 5833 5831 5828 5827 5826 5824 5823 5822 5820 5818 5817 5816 5815 5815 5813
5871 5872 5874 5875 5876 5876 5877 5877 5877 5878 5879 5880 5880 5881 5882 5882 5883 5884 5884 5885 5885 5885 5885 5886 5887 5887 5886 5886 5886 5886 5886 5886 5886 5885 5884 5883 5882 5882 5882 5880 5879 5877 5876 5874 5873 5871 5870 5869 5867 5866 5864 5862 5860 5858 5856 5854 5852 5851 5849 5847 5846 5844 5843 5841 5840 5838 5837 5835 5833 5831 5829 5827 5825 5823 5821 5820 5818 5816 5814 5813 5812 5810 5810 5809 5808
5869 5870 5872 5873 5873 5874 5875 5876 5876 5876 5877 5878 5878 5879 5879 5880 5881 5882 5882 5883 5883 5883 5883 5884 5884 5884 5884 5884 5884 5884 5884 5884 5883 5883 5882 5880 5879 5879 5879 5877 5876 5874 5872 5871 5869 5868 5866 5865 5863 5862 5860 5858 5856 5854 5852 5850 5848 5847 5845 5843 5841 5840 5839 5837 5836 5834 5833 5831 5829 5826 5824 5823 5822 5819 5816 5815 5813 5811 5809 5808 5807 5805 5804 5804 5803
5867 5869 5870 5870 5871 5872 5873 5873 5874 5875 5875 5875 5876 5876 5876 5877 5878 5879 5880 5880 5880 5880 5881 5881 5881 5881 5882 5882 5882 5882 5881 5881 5881 5880 5879 5878 5876 5875 5875 5874 5873 5871 5869 5867 5865 5864 5862 5861 5859 5858 5856 5854 5852 5850 5849 5846 5844 5843 5840 5839 5837 5835 5833 5832 5831 5830 5828 5826 5824 5822 5819 5818 5817 5815 5811 5810 5808 5806 5804 5803 5802 5800 5799 5798 5798
5864 5866 5867 5867 5868 5869 5870 5871 5872 5873 5873 5873 5873 5873 5874 5875 5875 5876 5877 5877 5877 5878 5878 5879 5879 5879 5880 5880 5879 5879 5879 5879 5878 5877 5876 5875 5872 5872 5872 5871 5869 5867 5865 5863 5861 5859 5857 5856 5855 5854 5852 5850 5848 5846 5845 5842 5840 5838 5836 5834 5832 5830 5828 5826 5826 5825 5823 5821 5819 5817 5815 5814 5813 5810 5807 5805 5803 5801 5800 5798 5797 5796 5794 5793 5792
5861 5862 5863 5864 5865 5866 5867 5868 5869 5870 5870 5870 5870 5870 5871 5872 5872 5873 5873 5874 5875 5875 5876 5876 5877 5877 5877 5877 5877 5877 5876 5876 5875 5874 5873 5871 5869 5868 5868 5867 5865 5863 5860 5858 5855 5852 5850 5850 5849 5849 5848 5846 5844 5842 5840 5838 5836 5834 5832 5830 5828 5826 5823 5822 5821 5820 5818 5816 5814 5813 5811 5809 5807 5805 5803 5801 5799 5797 5795 5793 5792 5790 5789 5788 5786
5857 5858 5859 5860 5861 5862 5864 5865 5866 5866 5867 5866 5867 5867 5868 5869 5869 5870 5870 5871 5871 5872 5873 5874 5874 5875 5874 5874 5874 5874 5873 5873 5872 5871 5870 5868 5866 5864 5864 5863 5861 5858 5856 5852 5849 5846 5845 5844 5844 5844 5843 5842 5839 5837 5835 5833 5832 5830 5827 5825 5823 5821 5820 5817 5815 5814 5812 5810 5808 5807 5805 5803 5802 5800 5798 5796 5794 5792 5790 5788 5786 5784 5783 5782 5780
5852 5854 5855 5857 5858 5859 5860 5861 5862 5862 5862 5863 5864 5864 5865 5866 5866 5866 5867 5867 5867 5868 5870 5871 5872 5871 5871 5871 5871 5871 5870 5869 5868 5867 5866 5864 5862 5861 5860 5859 5856 5853 5852 5850 5847 5845 5843 5840 5839 5838 5837 5837 5835 5832 5830 5828 5827 5825 5823 5820 5818 5817 5815 5812 5810 5809 5807 5805 5803 5801 5799 5798 5797 5795 5793 5791 5789 5787 5784 5783 5781 5779 5777 5776 5773
5847 5849 5851 5852 5853 5854 5855 5856 5857 5857 5858 5859 5861 5861 5861 5862 5862 5862 5863 5863 5864 5865 5866 5867 5867 5867 5867 5867 5868 5867 5866 5865 5864 5864 5862 5860 5859 5857 5856 5856 5852 5849 5848 5847 5845 5844 5841 5837 5835 5834 5832 5831 5830 5828 5826 5824 5823 5821 5818 5815 5813 5812 5810 5807 5805 5805 5802 5800 5799 5797 5794 5792 5791 5789 5788 5786 5783 5781 5779 5777 5775 5773 5771 5769 5767
5843 5844 5846 5847 5848 5849 5849 5850 5851 5852 5853 5855 5856 5857 5857 5857 5858 5858 5859 5859 5860 5861 5861 5862 5862 5863 5863 5864 5864 5863 5863 5861 5860 5860 5858 5857 5856 5854 5853 5852 5849 5845 5845 5843 5841 5839 5836 5833 5832 5831 5829 5827 5825 5823 5821 5819 5818 5817 5813 5810 5809 5808 5805 5803 5801 5801 5799 5796 5794 5793 5790 5788 5787 5784 5782 5780 5777 5775 5773 5771 5769 5767 5765 5762 5759
5838 5839 5840 5841 5842 5843 5844 5845 5846 5846 5848 5850 5851 5852 5852 5852 5852 5853 5854 5855 5855 5855 5856 5857 5858 5858 5859 5859 5859 5858 5857 5857 5856 5856 5854 5853 5852 5850 5849 5849 5846 5843 5843 5842 5839 5836 5833 5830 5829 5827 5825 5824 5821 5819 5817 5815 5813 5812 5809 5807 5805 5803 5800 5798 5797 5796 5795 5793 5791 5789 5786 5784 5782 5780 5777 5774 5772 5770 5768 5766 5763 5760 5758 5755 5751
5833 5833 5834 5834 5835 5837 5838 5839 5840 5841 5842 5844 5844 5845 5846 5847 5847 5849 5849 5850 5850 5850 5851 5852 5853 5853 5854 5854 5853 5853 5852 5852 5852 5851 5850 5849 5848 5847 5846 5845 5842 5840 5839 5837 5835 5833 5830 5828 5826 5824 5821 5820 5817 5815 5813 5810 5808 5806 5804 5802 5800 5798 5795 5793 5792 5790 5789 5788 5786 5784 5782 5780 5778 5775 5772 5769 5766 5764 5762 5759 5757 5754 5750 5747 5744
5827 5828 5829 5829 5830 5831 5832 5833 5834 5835 5836 5837 5837 5839 5840 5841 5842 5843 5843 5844 5844 5844 5845 5846 5847 5848 5848 5847 5847 5847 5848 5848 5848 5847 5846 5845 5844 5843 5842 5841 5839 5837 5835 5833 5831 5829 5827 5824 5822 5820 5817 5815 5813 5810 5808 5806 5803 5801 5799 5797 5795 5793 5791 5789 5787 5786 5785 5783 5781 5779 5778 5776 5773 5769 5766 5763 5761 5758 5756 5753 5750 5747 5743 5740 5736
5821 5822 5823 5823 5824 5825 5826 5827 5828 5829 5830 5831 5832 5832 5833 5834 5835 5836 5836 5837 5837 5838 5839 5840 5841 5841 5841 5842 5842 5842 5843 5843 5843 5842 5842 5841 5840 5839 5838 5837 5836 5834 5832 5830 5828 5825 5823 5821 5818 5816 5813 5811 5808 5806 5804 5801 5798 5796 5794 5792 5790 5787 5785 5784 5783 5782 5780 5778 5776 5775 5772 5770 5767 5763 5760 5758 5755 5752 5749 5746 5743 5739 5736 5733 5729
5814 5814 5815 5816 5817 5818 5820 5821 5822 5823 5825 5826 5826 5827 5827 5827 5828 5828 5828 5829 5830 5831 5832 5833 5834 5835 5836 5836 5837 5837 5837 5838 5838 5838 5837 5837 5836 5835 5833 5832 5831 5830 5827 5826 5824 5822 5819 5816 5814 5811 5809 5806 5804 5801 5799 5796 5794 5791 5789 5787 5785 5783 5780 5779 5778 5777 5775 5772 5771 5769 5766 5763 5760 5757 5754 5752 5749 5746 5743 5739 5736 5732 5729 5726 5723
5807 5807 5808 5809 5810 5811 5812 5814 5816 5818 5819 5820 5821 5821 5821 5821 5821 5821 5821 5821 5822 5824 5826 5827 5827 5829 5830 5831 5831 5831 5832 5833 5833 5832 5832 5832 5831 5830 5829 5828 5826 5825 5823 5821 5820 5817 5814 5811 5809 5807 5804 5802 5799 5796 5794 5791 5789 5788 5785 5783 5781 5778 5775 5774 5773 5772 5770 5767 5765 5763 5760 5757 5754 5751 5748 5746 5743 5741 5737 5733 5730 5726 5724 5721 5718
5800 5800 5800 5801 5802 5803 5804 5806 5809 5811 5812 5813 5814 5814 5815 5815 5815 5814 5814 5814 5814 5816 5818 5820 5821 5822 5824 5824 5825 5826 5826 5827 5827 5827 5826 5826 5825 5824 5823 5822 5821 5820 5818 5817 5815 5812 5810 5807 5804 5801 5799 5797 5794 5792 5789 5787 5785 5783 5781 5778 5775 5774 5772 5770 5769 5766 5763 5761 5760 5758 5755 5752 5749 5745 5742 5739 5737 5734 5731 5728 5724 5721 5718 5716 5713
5792 5792 5793 5794 5795 5796 5796 5797 5798 5800 5802 5803 5804 5806 5807 5808 5809 5808 5807 5807 5807 5808 5810 5810 5812 5815 5817 5818 5819 5819 5820 5820 5820 5820 5820 5819 5819 5818 5818 5817 5816 5814 5813 5812 5809 5807 5805 5802 5800 5797 5794 5792 5789 5787 5785 5782 5780 5778 5776 5773 5770 5768 5767 5766 5763 5760 5757 5756 5754 5751 5748 5746 5743 5739 5736 5733 5730 5727 5725 5723 5719 5716 5713 5711 5708
5784 5784 5785 5786 5787 5787 5788 5788 5789 5790 5792 5793 5794 5796 5798 5800 5801 5802 5801 5800 5798 5797 5798 5799 5803 5807 5810 5810 5811 5812 5813 5814 5814 5813 5812 5812 5812 5813 5812 5811 5810 5809 5808 5806 5804 5801 5799 5797 5795 5792 5790 5787 5785 5782 5779 5777 5776 5773 5771 5769 5767 5764 5762 5760 5758 5755 5752 5751 5748 5745 5742 5739 5736 5733 5730 5727 5724 5722 5720 5718 5715 5712 5709 5706 5704
5778 5778 5779 5779 5779 5779 5779 5779 5779 5781 5781 5781 5782 5784 5786 5789 5793 5794 5793 5792 5791 5789 5789 5790 5792 5795 5798 5800 5802 5804 5806 5807 5806 5805 5805 5807 5807 5806 5806 5805 5804 5804 5802 5800 5798 5796 5794 5792 5789 5787 5785 5783 5781 5778 5775 5773 5771 5768 5766 5765 5763 5760 5758 5755 5753 5750 5747 5745 5743 5740 5736 5733 5730 5727 5725 5722 5720 5718 5716 5714 5712 5709 5706 5703 5700
5772 5771 5771 5771 5771 5770 5770 5769 5770 5769 5768 5767 5769 5771 5773 5776 5781 5784 5784 5783 5783 5784 5785 5785 5783 5784 5786 5789 5792 5796 5798 5798 5798 5798 5800 5801 5801 5800 5800 5800 5799 5798 5796 5794 5793 5791 5788 5786 5784 5782 5780 5778 5775 5773 5770 5768 5766 5764 5762 5760 5757 5755 5753 5750 5747 5745 5742 5739 5737 5734 5731 5728 5725 5723 5721 5719 5717 5715 5713 5711 5708 5706 5703 5700 5697
5763 5762 5761 5761 5761 5760 5759 5759 5758 5755 5751 5751 5753 5757 5761 5765 5768 5771 5773 5773 5773 5775 5780 5781 5779 5777 5778 5780 5784 5787 5789 5789 5790 5792 5794 5794 5795 5795 5795 5794 5793 5792 5791 5789 5787 5785 5783 5781 5779 5777 5775 5773 5770 5767 5765 5763 5761 5759 5757 5754 5751 5749 5747 5745 5742 5740 5737 5734 5731 5728 5726 5723 5721 5719 5717 5716 5714 5712 5709 5707 5705 5703 5700 5697 5694
5753 5752 5752 5751 5751 5750 5749 5748 5745 5739 5735 5736 5739 5741 5746 5751 5755 5758 5760 5761 5762 5767 5773 5774 5772 5769 5770 5774 5777 5779 5780 5781 5784 5786 5787 5787 5788 5789 5789 5788 5788 5786 5785 5783 5781 5779 5777 5775 5774 5772 5770 5768 5765 5762 5760 5759 5757 5754 5751 5749 5746 5744 5742 5739 5737 5734 5732 5729 5726 5724 5722 5719 5718 5716 5714 5713 5711 5709 5707 5705 5702 5700 5697 5694 5691
5743 5743 5743 5742 5742 5741 5739 5738 5732 5715 5704 5712 5724 5727 5728 5735 5739 5742 5746 5748 5751 5758 5764 5766 5762 5761 5763 5767 5770 5772 5775 5777 5779 5780 5780 5781 5782 5782 5783 5783 5782 5780 5779 5777 5776 5774 5772 5770 5768 5767 5765 5763 5761 5758 5756 5754 5751 5749 5746 5743 5741 5739 5737 5734 5732 5729 5726 5724 5722 5720 5718 5716 5715 5713 5712 5711 5709 5707 5705 5702 5699 5696 5693 5690 5687
5735 5735 5735 5733 5733 5732 5730 5730 5725 5703 5689 5702 5716 5712 5709 5718 5724 5725 5731 5737 5740 5746 5753 5756 5754 5754 5758 5762 5765 5767 5770 5772 5773 5773 5773 5774 5775 5776 5777 5777 5776 5774 5773 5771 5770 5768 5767 5765 5763 5761 5760 5758 5756 5754 5752 5749 5746 5743 5740 5737 5735 5733 5731 5729 5726 5724 5722 5720 5718 5716 5714 5713 5712 5711 5710 5708 5706 5704 5702 5699 5696 5693 5690 5687 5684
5728 5728 5728 5725 5723 5723 5721 5720 5717 5706 5703 5716 5718 5697 5684 5694 5706 5710 5716 5725 5730 5734 5739 5743 5745 5748 5753 5757 5760 5763 5765 5766 5766 5765 5766 5767 5769 5770 5770 5770 5769 5768 5766 5765 5764 5763 5761 5760 5758 5757 5755 5754 5752 5749 5747 5744 5740 5737 5734 5732 5730 5728 5726 5724 5721 5719 5718 5716 5714 5713 5712 5711 5710 5709 5707 5705 5704 5701 5699 5696 5693 5690 5687 5684 5681
5721 5720 5719 5716 5714 5714 5712 5708 5704 5700 5702 5715 5718 5699 5680 5682 5694 5703 5709 5716 5721 5725 5729 5734 5740 5745 5748 5752 5755 5757 5759 5759 5759 5759 5761 5763 5763 5764 5764 5764 5763 5761 5760 5759 5758 5757 5756 5755 5753 5752 5750 5749 5747 5744 5741 5738 5735 5731 5729 5727 5725 5723 5721 5719 5718 5716 5714 5712 5711 5710 5710 5709 5708 5707 5705 5703 5701 5698 5696 5693 5690 5687 5684 5681 5678
5714 5712 5710 5708 5706 5705 5703 5699 5697 5696 5695 5699 5704 5700 5690 5689 5697 5704 5708 5711 5715 5719 5724 5729 5736 5740 5743 5745 5748 5750 5752 5753 5753 5754 5755 5756 5757 5757 5757 5757 5756 5755 5754 5753 5752 5752 5751 5750 5748 5747 5745 5743 5741 5739 5736 5732 5729 5727 5725 5723 5721 5719 5717 5716 5714 5713 5711 5710 5709 5709 5708 5707 5706 5704 5702 5700 5698 5695 5692 5690 5687 5684 5681 5678 5675
5707 5704 5703 5702 5700 5699 5697 5693 5691 5692 5692 5692 5694 5695 5695 5696 5700 5703 5705 5707 5711 5716 5721 5727 5732 5735 5737 5739 5741 5743 5745 5746 5747 5748 5749 5749 5750 5750 5750 5749 5749 5748 5748 5747 5747 5746 5745 5744 5743 5742 5740 5738 5736 5733 5730 5727 5724 5722 5721 5719 5717 5716 5714 5713 5711 5710 5708 5708 5707 5707 5706 5705 5703 5701 5699 5697 5695 5692 5689 5687 5684 5681 5678 5676 5673
5701 5699 5698 5698 5697 5696 5694 5692 5689 5689 5690 5691 5693 5694 5696 5698 5699 5701 5704 5708 5712 5716 5720 5724 5727 5730 5732 5734 5736 5737 5739 5740 5742 5743 5743 5743 5743 5743 5743 5743 5742 5742 5742 5742 5741 5740 5739 5738 5737 5736 5734 5732 5730 5728 5725 5722 5719 5718 5717 5715 5714 5713 5711 5710 5708 5707 5706 5706 5705 5705 5704 5702 5701 5699 5697 5694 5692 5689 5687 5684 5681 5678 5676 5673 5670
5698 5696 5695 5695 5695 5694 5693 5691 5690 5690 5690 5691 5692 5694 5695 5697 5700 5704 5708 5711 5714 5716 5719 5721 5723 5725 5727 5729 5730 5732 5733 5734 5736 5736 5737 5737 5737 5737 5736 5736 5736 5736 5736 5735 5735 5734 5734 5732 5731 5730 5729 5727 5725 5722 5719 5717 5715 5714 5713 5712 5710 5709 5708 5706 5705 5704 5703 5703 5703 5702 5701 5700 5698 5696 5694 5691 5689 5686 5684 5681 5679 5676 5673 5670 5667
5695 5694 5693 5693 5693 5693 5692 5691 5690 5690 5691 5692 5693 5694 5696 5699 5702 5704 5707 5709 5711 5713 5714 5717 5719 5721 5722 5723 5725 5726 5727 5728 5730 5730 5730 5731 5730 5730 5730 5730 5730 5730 5730 5729 5729 5728 5727 5726 5726 5724 5723 5721 5719 5716 5714 5712 5711 5710 5709 5708 5706 5705 5704 5703 5702 5701 5700 5700 5700 5700 5699 5697 5696 5693 5691 5688 5686 5684 5681 5679 5676 5674 5671 5668 5665
5691 5690 5691 5691 5691 5691 5691 5690 5690 5690 5691 5691 5693 5694 5696 5698 5700 5702 5703 5705 5707 5709 5710 5712 5713 5714 5715 5717 5718 5719 5721 5722 5723 5723 5723 5724 5724 5724 5724 5724 5724 5724 5723 5723 5723 5722 5721 5721 5720 5719 5717 5715 5713 5710 5708 5707 5706 5705 5704 5703 5702 5701 5700 5699 5698 5698 5698 5698 5698 5697 5696 5695 5693 5690 5688 5685 5683 5681 5679 5677 5674 5671 5669 5666 5663
5687 5687 5687 5687 5688 5688 5688 5688 5688 5688 5689 5690 5691 5692 5693 5695 5696 5697 5699 5701 5703 5704 5705 5706 5707 5708 5709 5711 5712 5713 5714 5716 5716 5716 5717 5717 5717 5717 5718 5717 5718 5718 5717 5717 5717 5716 5716 5715 5714 5713 5711 5710 5707 5705 5704 5703 5702 5701 5700 5699 5698 5697 5696 5696 5695 5695 5696 5696 5695 5695 5693 5692 5690 5687 5685 5683 5681 5679 5677 5674 5672 5669 5667 5664 5661
5682 5683 5684 5683 5683 5683 5684 5685 5685 5685 5686 5687 5688 5689 5690 5691 5692 5693 5695 5696 5697 5698 5700 5700 5701 5702 5704 5705 5706 5707 5708 5709 5709 5709 5709 5710 5710 5711 5711 5710 5711 5711 5711 5711 5711 5711 5710 5710 5708 5707 5706 5704 5702 5700 5699 5698 5698 5697 5696 5695 5695 5694 5693 5693 5693 5693 5693 5693 5692 5692 5690 5689 5687 5685 5682 5680 5679 5676 5674 5672 5670 5667 5665 5662 5659
5678 5678 5679 5679 5679 5680 5680 5681 5682 5683 5683 5684 5684 5685 5686 5687 5688 5689 5690 5690 5691 5692 5694 5695 5696 5697 5698 5699 5700 5700 5701 5701 5702 5702 5702 5703 5704 5704 5704 5704 5704 5705 5705 5705 5705 5705 5705 5704 5702 5701 5700 5698 5696 5695 5694 5694 5693 5693 5692 5692 5691 5690 5690 5690 5690 5691 5691 5690 5690 5689 5688 5686 5684 5682 5680 5678 5676 5674 5672 5670 5668 5665 5663 5660 5657
5673 5673 5673 5674 5675 5676 5676 5677 5678 5679 5679 5680 5680 5681 5682 5682 5683 5684 5684 5685 5685 5686 5687 5688 5690 5691 5692 5693 5693 5693 5694 5694 5694 5695 5696 5696 5697 5697 5697 5697 5698 5699 5699 5700 5700 5699 5699 5698 5696 5696 5695 5693 5691 5690 5690 5689 5689 5688 5688 5688 5687 5687 5687 5687 5688 5688 5688 5688 5687 5686 5685 5683 5681 5679 5677 5676 5674 5672 5670 5668 5666 5663 5661 5658 5655
5668 5669 5669 5669 5670 5671 5671 5673 5674 5674 5675 5675 5675 5676 5676 5677 5677 5678 5678 5679 5680 5681 5682 5682 5683 5684 5685 5685 5685 5686 5686 5686 5687 5688 5689 5690 5690 5690 5691 5691 5692 5693 5693 5694 5694 5693 5693 5692 5691 5690 5689 5687 5686 5685 5685 5685 5684 5684 5684 5684 5684 5684 5684 5684 5684 5685 5685 5685 5684 5683 5682 5680 5678 5677 5675 5673 5671 5669 5667 5665 5663 5661 5659 5656 5653
5664 5665 5665 5666 5666 5667 5667 5668 5669 5669 5669 5670 5670 5670 5670 5670 5671 5671 5672 5673 5674 5675 5675 5676 5676 5677 5677 5677 5678 5678 5679 5680 5681 5682 5683 5683 5683 5684 5685 5686 5686 5687 5687 5688 5688 5687 5687 5686 5686 5685 5684 5682 5682 5681 5681 5680 5680 5680 5680 5680 5680 5680 5680 5681 5681 5682 5682 5681 5681 5680 5678 5677 5675 5674 5672 5670 5668 5667 5665 5663 5661 5659 5657 5654 5651
5659 5659 5660 5661 5662 5662 5663 5663 5664 5664 5664 5665 5665 5665 5664 5664 5665 5665 5666 5667 5668 5669 5669 5669 5669 5669 5670 5670 5671 5672 5674 5675 5676 5676 5677 5677 5678 5678 5679 5680 5681 5681 5682 5682 5682 5682 5681 5681 5680 5680 5679 5678 5677 5677 5677 5676 5676 5676 5677 5676 5676 5677 5677 5677 5678 5678 5678 5678 5677 5676 5675 5674 5672 5671 5669 5668 5666 5664 5663 5661 5659 5657 5654 5652 5649
5653 5653 5654 5655 5655 5656 5657 5658 5660 5660 5660 5661 5661 5660 5659 5659 5660 5660 5660 5661 5662 5662 5663 5663 5663 5663 5664 5664 5666 5667 5669 5670 5670 5671 5672 5672 5673 5673 5674 5675 5676 5676 5676 5676 5676 5676 5676 5676 5675 5675 5674 5673 5673 5672 5672 5672 5673 5673 5673 5673 5673 5673 5673 5673 5674 5674 5674 5674 5673 5673 5672 5671 5669 5668 5666 5665 5663 5662 5660 5658 5656 5654 5652 5650 5647
5648 5648 5648 5649 5650 5650 5651 5653 5654 5655 5655 5656 5656 5655 5655 5657 5657 5656 5656 5657 5658 5658 5658 5659 5659 5659 5660 5660 5661 5662 5663 5664 5665 5665 5666 5667 5667 5668 5669 5670 5670 5670 5670 5670 5670 5670 5670 5670 5670 5670 5669 5669 5668 5668 5668 5668 5668 5669 5669 5669 5669 5669 5670 5670 5670 5670 5670 5670 5670 5669 5668 5667 5666 5665 5663 5662 5660 5659 5657 5656 5654 5652 5650 5647 5645